Weather Roundup
Issued by NWS Springfield, MO

Home | Current Version | Previous Version | Text Only | Print | Product List | Glossary On
Versions: 1 2 3 4 5 6 7 8 9 10 11 12 13 14 15 16 17 18 19 20 21 22 23 24 25 26 27 28 29 30 31 32 33 34 35 36 37 38 39 40 41 42 43 44 45 46 47 48 49 50
000
NZUS99 KSGF 231007
HRRSGF

HOURLY WEATHER
NATIONAL WEATHER SERVICE SPRINGFIELD MO
500 AM CDT SAT MAY 23 2015

......SGF CWA......

CITY           SKY/WX    TMP DP  RH WIND       PRES   REMARKS
SPRINGFIELD    CLOUDY    59  48  67 SE13      30.22S
JOPLIN         CLOUDY    59  52  77 S5        30.21R
WEST PLAINS    CLOUDY    58  49  72 CALM      30.28R
ROLLA          MOCLDY    57  49  74 SE8       30.26S
OSAGE BEACH    CLOUDY    59  48  67 E3        30.25S
BRANSON          N/A     55  50  82 CALM      30.25R

......SURROUNDING SGF CWA......

CITY           SKY/WX    TMP DP  RH WIND       PRES   REMARKS
CHANUTE        CLOUDY    58  55  90 SE7       30.20R
PARSONS        LGT RAIN  57  57 100 SE3       30.21R FOG
COFFEYVILLE    LGT RAIN  57  56  96 SE6       30.19S FOG
EMPORIA        CLOUDY    55  54  96 SE8       30.17F FOG
GROVE OK       DRIZZLE   59  59 100 CALM      30.21S
ROGERS AR      LGT RAIN  59  53  80 SE8       30.22S
SILOAM SPRINGS CLOUDY    55  48  76 SE8       30.22R
HARRISON AR    CLOUDY    57  51  80 SE8       30.24S
NEAR YELLVILLE CLOUDY    57  52  82 CALM      30.24R

......KANSAS AND MISSOURI......

CITY           SKY/WX    TMP DP  RH WIND       PRES   REMARKS
KANSAS CTY INT CLOUDY    60  51  72 S7        30.21R
DOWNTOWN KC    CLOUDY    62  50  64 S6        30.20S
COLUMBIA       CLOUDY    60  53  77 SE6       30.26S
SEDALIA        CLOUDY    60  51  72 SE6       30.25R
ST JOSEPH      CLOUDY    59  53  80 SE6       30.20S
ST LOUIS       NOT AVBL
SPIRIT OF STL  CLOUDY    59  58  96 CALM      30.28R
KIRKSVILLE     CLOUDY    57  54  89 SE5       30.27R
WICHITA        CLOUDY    56  55  97 SE9       30.15R FOG
TOPEKA         LGT RAIN  59  53  80 S6        30.19S
OLATHE         CLOUDY    59  51  75 S8        30.20R

......TENNESSEE......

CITY           SKY/WX    TMP DP  RH WIND       PRES   REMARKS
MEMPHIS        CLOUDY    65  50  58 E5        30.25R
NASHVILLE      MOCLDY    53  50  89 CALM      30.31R

......ARKANSAS.......

CITY           SKY/WX    TMP DP  RH WIND       PRES   REMARKS
FAYETTEVILLE   HVY RAIN  58  55  90 S6        30.22R FOG
FT SMITH       CLOUDY    60  58  92 E8        30.20S
LITTLE ROCK    MOCLDY    62  55  77 N7        30.23R

......OKLAHOMA.......

CITY           SKY/WX    TMP DP  RH WIND       PRES   REMARKS
TULSA          CLOUDY    59  58  96 E8        30.16S
PONCA CITY     CLOUDY    58  57  97 SE8       30.14S FOG
MCALESTER      CLOUDY    61  59  93 E3        30.15S
OKLAHOMA CITY  CLOUDY    59  58  96 SE10      30.11S FOG

......IOWA............

CITY           SKY/WX    TMP DP  RH WIND       PRES   REMARKS
DES MOINES     CLOUDY    58  48  69 SE6       30.24S
QUAD CITIES    CLOUDY    53  44  71 E3        30.27R

......ILLINOIS........

CITY           SKY/WX    TMP DP  RH WIND       PRES   REMARKS
QUINCY         PTCLDY    56  51  84 SE6       30.27R
CHICAGO        PTCLDY    50  37  61 S3        30.30R




USA.gov is the U.S. government's official web portal to all federal, state and local government web resources and services.